Dewpoint
55 55 55 55 54 55 55 53 53 53 53 52 52 52 52 52 52 49 43 46 43 38 36 37 36 39 39 38 35 38 37 39 34 35 32 31 31 33 35 35 35 36 35 35 36 38 34 47 43 43 50 48 49 50
55 55 55 55 54 55 54 53 52 52 52 52 52 51 52 52 52 51 41 44 47 43 40 42 41 41 42 42 40 40 39 40 39 36 36 34 31 32 35 30 36 36 41 39 44 46 52 54 48 45 45 48 49 52
54 54 54 54 54 55 54 53 52 52 52 52 51 51 51 51 51 50 45 46 46 43 40 39 39 43 42 41 41 40 41 43 43 42 38 35 37 35 32 31 34 36 39 37 40 39 41 42 43 42 47 49 48 50
54 54 54 54 54 54 53 52 52 52 52 51 50 51 51 51 51 51 46 47 46 43 39 36 38 42 44 42 43 41 41 42 41 41 39 37 34 38 35 37 37 36 39 39 40 40 44 45 46 46 46 47 47 47
54 54 54 54 54 54 52 52 52 52 52 50 50 50 50 50 52 50 47 49 48 44 38 36 38 41 42 43 43 44 43 43 42 41 39 38 38 39 40 40 37 37 41 42 39 44 45 46 45 46 44 45 47 50
53 53 53 53 54 54 52 52 52 52 51 50 50 50 51 51 52 49 44 48 49 47 43 38 39 41 41 41 42 43 43 43 42 41 39 39 40 43 39 37 43 51 49 52 50 50 48 48 46 45 46 46 46 51
54 53 53 53 54 53 52 52 52 51 50 50 50 51 52 52 50 47 45 48 49 49 43 39 37 40 41 40 40 40 43 42 42 41 40 40 41 44 40 41 48 48 49 50 50 48 50 50 46 47 46 48 51 52
53 53 53 53 53 52 52 52 51 51 50 50 51 51 51 52 51 48 50 50 50 47 43 40 38 39 41 37 37 41 39 40 43 41 42 41 48 54 46 47 50 51 52 52 53 53 52 49 50 48 50 52 52 52
53 53 53 53 53 52 51 51 50 50 50 50 51 49 50 49 47 50 52 52 51 47 43 40 35 35 39 37 37 38 43 39 43 43 49 52 51 45 46 49 50 51 51 51 52 53 53 51 51 51 50 50 51 56
53 53 53 53 52 51 51 51 50 50 49 50 47 47 46 46 48 52 51 48 47 47 45 41 39 36 36 37 37 38 41 40 41 45 51 50 46 49 51 52 52 52 52 53 53 52 53 54 53 53 51 51 52 51
53 52 53 53 51 51 51 50 50 50 48 44 41 41 45 49 43 45 44 44 43 41 42 40 40 40 39 38 38 39 40 41 40 47 47 44 44 47 50 52 53 53 53 54 55 55 54 55 55 54 53 53 52 53
52 52 53 52 50 51 50 50 50 46 44 44 44 44 44 43 42 41 40 41 41 41 43 39 39 39 41 44 41 44 43 41 38 42 44 41 47 49 50 51 53 54 54 53 53 54 54 52 53 55 56 54 53 53
52 53 52 50 50 50 49 50 50 50 49 47 46 43 42 43 40 38 35 36 38 41 40 39 38 37 39 44 40 41 39 41 44 43 41 44 47 48 51 52 52 53 52 52 53 55 57 57 57 58 57 57 55 53
52 52 50 50 49 49 48 49 50 49 46 42 41 39 38 37 36 36 36 37 40 39 37 37 37 37 37 39 44 41 44 44 40 39 40 44 50 49 51 51 52 52 52 53 55 56 56 56 56 57 57 58 56 54
52 50 50 50 48 48 50 50 50 48 43 40 40 37 36 36 37 37 39 39 40 39 39 36 35 37 39 42 43 39 39 39 41 41 44 45 49 51 52 52 52 54 55 55 56 57 56 56 56 56 58 59 55 57
50 50 48 46 48 49 48 48 48 46 43 40 40 37 36 35 34 35 37 38 40 38 38 36 36 37 36 37 38 39 39 37 43 43 44 47 51 53 54 53 56 57 56 56 57 58 58 57 59 60 60 60 60 60
48 46 49 47 48 49 49 46 45 42 41 39 36 36 35 36 36 35 37 39 42 38 35 34 32 36 41 37 37 43 41 41 43 43 44 52 54 56 57 56 57 57 56 56 57 59 59 59 59 59 59 60 61 60
46 47 48 48 47 47 46 46 42 41 39 38 36 36 38 39 38 37 37 39 40 38 38 34 36 33 34 34 39 43 43 42 44 44 46 52 57 58 57 57 55 57 56 56 54 58 59 59 59 59 60 60 60 61
46 46 46 47 45 43 42 42 43 39 38 37 38 38 38 38 39 40 39 40 42 43 41 39 34 31 34 43 44 40 42 42 42 44 48 56 57 58 57 57 55 55 55 56 50 49 54 59 62 64 61 61 59 59
48 48 48 48 46 42 39 40 44 41 38 39 39 38 38 38 38 37 37 37 38 40 39 36 35 35 34 39 41 42 43 46 45 45 51 55 56 58 59 56 53 55 50 48 50 45 53 54 63 62 60 59 59 59
43 46 48 47 44 41 39 39 38 39 39 38 38 38 36 37 36 37 38 42 37 35 37 38 37 39 42 46 47 45 51 52 53 47 46 47 54 61 55 51 48 54 47 44 46 45 44 53 56 57 61 59 56 57
44 46 47 46 42 42 40 40 38 39 38 37 37 37 36 35 36 39 42 37 37 40 43 41 45 55 53 47 47 50 50 51 52 48 50 51 56 55 57 48 48 49 45 44 44 44 44 44 50 50 51 51 49 50
44 45 44 45 41 41 40 42 41 40 38 37 37 35 35 36 38 43 41 48 52 49 49 48 50 51 50 49 49 50 52 52 50 52 56 53 57 55 45 46 43 43 45 45 43 44 45 44 44 48 46 48 50 52
45 42 42 41 41 38 40 40 40 38 37 36 35 33 33 35 39 37 38 49 49 52 51 51 50 47 47 51 48 51 49 49 48 54 58 59 57 45 44 46 43 43 43 42 42 41 42 44 44 46 46 46 48 48
40 39 40 39 40 40 38 37 37 36 35 36 36 34 34 38 39 41 43 48 50 50 49 48 49 49 45 42 41 43 51 48 51 57 60 61 49 50 48 46 52 45 45 43 41 41 41 42 44 44 44 44 44 44
37 38 39 37 36 36 35 33 34 35 36 36 35 34 35 34 33 35 46 49 49 50 50 48 49 43 45 44 41 42 46 48 48 58 52 51 51 53 51 47 47 43 42 39 39 40 40 41 41 41 41 41 40 41
36 36 38 39 38 37 36 36 35 34 32 32 33 31 32 31 34 43 46 47 49 51 46 45 44 41 40 40 43 44 47 47 53 54 52 52 48 47 43 42 41 41 41 39 41 41 40 40 40 40 40 40 39 37
37 37 35 37 36 36 35 34 33 32 32 33 33 30 29 33 42 45 44 52 47 46 48 45 43 42 40 39 42 46 44 48 50 49 45 44 43 42 44 44 44 44 47 46 45 43 42 42 41 40 39 37 38 39
38 38 37 36 36 35 35 34 34 34 33 32 32 31 31 35 42 44 46 47 47 43 40 39 39 40 39 39 47 44 43 49 51 45 42 40 41 42 43 43 43 43 44 44 41 42 44 42 41 39 39 39 40 40
37 37 36 35 34 33 35 36 37 37 36 35 36 37 36 36 37 38 38 39 39 38 39 39 38 37 37 37 43 41 42 41 41 42 43 42 42 43 43 43 42 41 41 41 40 42 42 42 41 41 40 39 39 38
36 36 35 35 35 38 42 44 45 44 42 41 40 39 37 38 40 42 42 42 41 41 41 40 40 41 40 44 43 41 42 44 46 48 43 42 42 43 42 42 41 40 40 38 37 38 38 38 38 39 40 40 39 37
36 36 35 35 39 46 46 44 44 44 45 44 44 43 43 42 41 44 47 48 48 48 48 48 43 44 47 45 42 42 41 44 44 43 44 42 42 41 39 37 37 36 36 36 37 38 38 38 38 39 37 38 38 38
36 36 37 38 42 42 45 44 44 44 45 44 46 47 46 45 46 53 55 57 52 43 43 44 43 43 44 42 41 39 39 42 42 38 39 38 37 38 38 36 34 32 33 34 35 36 37 38 36 37 36 36 35 34
Lifted_Index
6 6 6 6 7 7 8 8 9 10 11 11 12 12 13 13 14 13 12 12 12 11 10 10 10 10 9 8 7 7 6 5 5 4 3 3 2 2 1 1 0 -0 -1 -2 -2 -2 -1 -1 -2 -2 -2 -2 -3 -3
6 6 6 6 7 7 8 9 10 11 11 12 12 13 13 14 14 13 12 12 11 10 10 10 10 9 9 8 7 6 6 5 4 4 3 3 2 2 1 1 -0 -1 -1 -1 -2 -1 -1 -1 -1 -2 -2 -2 -3 -3
6 6 6 6 7 7 8 9 10 11 12 12 13 13 14 14 14 14 12 11 10 10 9 9 9 9 8 8 7 6 5 5 4 4 3 3 2 2 1 1 0 -0 -0 -1 -1 -1 -1 -1 -1 -1 -2 -2 -2 -2
7 7 7 7 7 8 9 10 11 12 12 13 14 14 14 14 14 13 12 11 10 9 8 8 8 8 7 7 7 6 5 4 4 3 3 2 2 2 1 1 1 0 0 -0 -1 -1 -1 -1 -1 -1 -1 -1 -1 -1
7 7 7 8 8 9 10 11 11 12 13 14 14 14 14 14 14 12 11 10 10 9 8 8 7 7 7 6 6 5 5 4 3 2 2 2 2 2 1 1 1 0 -0 -1 -1 -1 -1 -1 -1 -1 -1 -1 -1 -1
8 8 8 8 9 10 11 11 12 12 13 14 14 14 14 14 13 11 10 9 10 9 8 7 6 6 6 6 5 4 4 3 2 2 2 2 2 1 1 1 1 0 -0 -1 -1 -2 -2 -2 -2 -1 -1 -1 -1 -1
8 8 8 9 9 10 11 11 12 13 13 13 14 14 14 13 12 10 9 9 10 9 8 6 5 5 5 5 4 3 3 2 2 2 1 1 1 1 1 1 1 1 1 0 -0 -1 -2 -2 -2 -1 -1 -0 -0 -1
8 8 9 9 10 11 12 12 12 13 13 13 14 13 13 12 10 9 9 10 10 9 7 5 4 4 4 4 3 2 2 2 1 1 1 1 1 1 1 1 2 2 1 1 0 -1 -1 -2 -1 -1 -1 -0 -0 -0
8 9 9 10 11 12 12 12 13 13 13 13 13 12 11 10 9 9 9 9 9 8 6 5 4 3 3 3 3 2 2 1 1 0 0 0 0 1 1 2 2 2 2 2 1 -0 -1 -2 -2 -2 -1 -1 -0 -0
9 9 10 11 11 12 12 13 13 13 13 13 11 10 9 9 9 9 8 8 7 6 5 4 3 3 3 3 2 2 1 1 1 0 -0 -0 1 2 2 2 2 2 2 2 1 1 -0 -1 -2 -2 -2 -2 -1 -1
9 9 10 11 11 12 12 13 13 13 12 11 10 9 9 9 9 8 6 6 5 5 4 3 3 3 3 2 2 2 1 1 0 -0 -0 0 1 2 2 2 2 2 1 1 1 1 0 -1 -1 -2 -2 -2 -2 -2
9 10 10 11 11 12 12 13 13 13 12 11 10 9 8 8 7 6 5 4 4 3 3 3 3 3 2 2 2 1 0 0 0 -0 0 1 2 2 2 2 2 1 1 0 0 -0 -0 -0 -1 -2 -2 -2 -2 -2
9 10 10 11 11 12 13 13 13 13 11 10 9 8 7 6 5 5 4 3 3 3 3 3 3 3 2 2 1 1 0 -0 -0 0 1 1 2 2 2 2 1 1 0 -0 -0 -0 -0 -1 -1 -2 -2 -2 -2 -2
9 10 10 10 11 12 12 12 12 12 10 8 7 6 5 5 4 3 3 3 3 3 3 3 3 3 2 2 1 0 0 -0 0 1 1 2 2 2 2 1 1 0 -0 -0 -1 -1 -1 -1 -1 -2 -2 -2 -3 -3
9 9 10 10 11 11 11 11 11 10 8 7 6 5 5 4 3 3 2 3 2 3 3 3 3 3 2 1 1 1 0 0 1 1 1 2 2 1 1 0 0 -0 -0 -0 -1 -1 -1 -1 -1 -2 -2 -2 -3 -3
9 9 9 10 10 11 11 10 9 8 7 6 5 5 4 3 3 2 2 2 2 2 3 3 3 3 2 2 1 1 1 1 1 1 1 1 1 0 -0 -0 -0 -1 -0 -0 -1 -1 -1 -1 -1 -1 -2 -2 -3 -3
9 9 9 10 10 10 10 9 8 7 6 5 4 4 3 3 2 2 2 2 2 2 3 3 3 3 2 2 1 1 1 1 1 1 1 1 0 -0 -1 -1 -1 -1 -1 -1 -1 -1 -1 -1 -1 -1 -1 -2 -2 -2
8 9 9 10 10 9 8 7 7 6 5 4 3 3 3 2 2 2 2 2 2 2 3 3 3 3 3 2 1 1 1 1 1 1 1 1 -0 -1 -1 -1 -1 -1 -1 -1 -1 -1 -2 -2 -2 -1 -1 -1 -1 -1
8 9 9 10 9 8 7 6 6 5 4 3 3 2 2 2 2 2 2 2 2 2 3 3 3 3 3 2 2 2 1 1 2 2 1 0 -1 -2 -2 -2 -2 -2 -1 -1 -0 -0 -1 -2 -2 -2 -1 -1 -0 -0
8 8 9 9 8 7 6 6 5 5 4 3 2 2 2 2 2 2 2 2 2 3 3 3 3 3 3 2 2 1 1 1 2 2 1 0 -1 -2 -2 -2 -2 -1 -1 -0 0 0 -1 -2 -2 -2 -1 -0 0 1
8 8 8 8 7 7 6 5 5 4 3 3 2 2 2 2 2 2 2 2 2 2 2 2 2 2 2 1 1 1 1 1 2 1 1 0 -1 -2 -2 -2 -1 -1 -0 0 1 1 0 -1 -1 -1 -1 0 1 1
8 8 7 6 6 6 5 5 4 3 3 2 2 2 2 2 2 2 1 1 1 2 2 1 1 1 0 0 0 1 1 1 1 1 1 -0 -1 -2 -1 -1 -1 -0 0 1 1 1 1 1 0 -0 -0 0 1 1
8 7 6 5 5 5 4 4 3 3 2 2 2 2 2 2 2 1 1 0 0 1 1 1 1 0 0 0 0 0 1 1 0 0 0 -0 -1 -1 0 0 1 1 1 1 1 1 1 1 1 0 0 1 1 1
7 6 5 4 4 4 4 3 3 2 2 2 2 2 3 2 2 1 1 0 0 1 1 1 1 1 1 1 1 1 1 0 0 -0 -1 -1 -0 1 1 1 1 2 2 2 2 2 2 2 1 1 1 1 1 1
5 5 4 4 4 4 3 3 3 2 2 2 2 3 3 3 2 1 0 0 1 1 2 2 2 2 2 2 2 2 1 0 0 -1 -1 -1 0 1 1 1 2 2 2 2 2 2 2 2 2 2 2 2 2 2
3 4 4 4 4 4 3 3 3 2 2 2 3 3 3 3 2 1 1 1 1 2 2 2 2 2 2 2 3 2 1 1 -0 -1 -1 -0 0 0 1 1 2 2 3 3 3 3 2 2 2 2 3 3 3 3
3 3 4 4 4 4 3 3 3 3 3 3 3 4 4 3 2 2 2 2 2 3 3 3 2 2 2 3 3 3 2 1 -0 -1 -0 0 0 1 1 1 2 2 3 3 3 2 2 3 3 3 3 4 4 4
4 4 4 4 4 4 4 4 4 4 4 4 4 4 4 3 2 2 2 3 3 3 3 3 3 3 3 3 3 3 2 1 -0 -0 0 1 1 1 1 2 2 3 3 3 3 3 3 3 3 4 4 5 5 5
5 4 4 4 4 4 4 4 4 4 4 4 4 4 4 3 2 2 3 3 3 3 3 3 3 3 3 3 3 3 2 1 1 1 1 1 1 1 2 2 2 2 3 3 3 4 4 4 4 4 5 5 5 5
4 4 4 4 4 4 4 4 5 5 4 4 4 4 4 4 3 3 3 3 3 3 3 3 3 3 3 2 2 3 3 3 2 2 2 2 2 2 2 2 3 3 3 3 4 4 5 5 4 4 4 4 4 4
4 4 4 4 4 4 4 4 4 4 4 4 4 4 4 4 4 3 3 2 2 2 2 2 2 2 2 2 2 3 3 3 3 3 2 2 2 3 3 3 3 4 4 4 5 5 5 4 4 4 4 4 4 4
3 4 4 4 3 3 3 3 3 3 3 3 3 3 3 3 3 2 1 1 1 1 1 1 1 1 2 2 3 4 4 4 4 4 4 4 4 4 4 4 5 5 5 5 5 5 4 4 4 4 4 5 5 5
3 3 4 3 3 2 2 2 2 2 2 2 3 3 2 2 2 1 0 -0 0 1 1 1 1 2 2 3 4 5 5 6 6 6 6 6 5 5 4 5 5 6 6 6 5 5 4 4 4 4 5 5 5 5